INTELSAT 31 (IS-31)

Last updated on Fri Apr 18 2025 00:02:41 GMT+0000 (Coordinated Universal Time)

1 41581U 16035A 25107.51512715 -.00000141 00000+0 00000+0 0 9991 2 41581 0.0090 234.3908 0001899 353.2370 68.6480 1.00271050 32417
UTC large
Height (km)
Speed (km/s)
/
Latitude / Longitude
Inclination (degrees)
Orbital Period (minutes)
Azimuth
Elevation
Range (km)
Doppler Factor

Next 0 passes for location: London (51.5072 / 0.1276)

Sorry there are no passes over London.